Total_Precipitation_Accumulation
3.20 3.90 5.17 6.11 5.83 4.80 3.61 3.02 2.90 3.09 3.08 2.65 2.15 2.13 1.61 1.72 2.24 2.31 1.28 1.08 0.99 0.90 0.96 0.81 0.85 0.77 0.87 0.87 0.90 0.92 1.09 1.41 1.58 0.88 0.66 0.54 0.46 0.31 0.24 0.27 0.24 0.18 0.17
3.15 3.42 3.85 4.77 5.58 5.49 5.03 3.73 3.37 2.75 2.85 2.83 2.50 2.39 2.21 1.80 1.80 2.11 2.13 1.43 1.15 0.99 0.91 0.85 0.74 0.77 0.79 0.85 0.87 0.84 0.81 0.87 1.04 0.73 0.35 0.27 0.23 0.18 0.17 0.21 0.20 0.19 0.18
3.36 3.38 3.26 3.67 4.61 5.33 5.50 5.36 4.91 4.07 3.22 2.84 2.83 2.51 2.24 2.19 2.07 1.98 1.90 2.00 1.49 1.18 1.04 1.07 0.87 1.05 1.02 1.08 1.13 1.07 0.95 0.86 0.85 0.88 0.56 0.35 0.29 0.29 0.36 0.39 0.38 0.38 0.35
3.10 3.61 3.28 3.28 3.89 4.82 5.42 5.95 6.02 5.64 4.94 3.95 3.21 2.92 2.70 2.53 2.37 2.34 2.39 2.02 1.85 1.56 1.35 1.18 1.29 1.17 1.14 1.00 1.13 1.05 1.02 1.02 1.02 1.01 0.92 0.77 0.61 0.50 0.64 0.62 0.54 0.47 0.47
2.35 2.77 3.04 3.44 3.58 4.34 5.14 5.83 5.94 6.51 6.42 5.66 4.89 4.01 3.40 3.61 3.62 3.31 3.15 2.89 2.58 2.48 2.12 1.78 1.50 1.55 1.39 1.15 1.17 1.14 1.21 1.38 1.46 1.62 1.51 1.38 1.28 1.09 0.93 0.85 1.00 0.90 0.87
2.30 2.37 2.26 2.82 3.49 3.98 4.48 4.90 5.38 6.20 6.65 7.36 6.58 5.62 4.89 3.89 4.25 4.17 3.80 3.64 3.39 3.25 2.96 2.40 1.98 2.07 1.74 1.65 1.51 1.46 1.37 1.55 1.66 1.72 1.57 1.38 1.05 0.94 0.93 1.15 1.41 1.58 1.51
1.77 2.05 2.16 2.41 2.41 3.27 3.82 4.25 4.85 5.71 6.93 7.61 7.94 7.62 6.90 6.14 5.17 4.32 4.75 4.31 3.89 3.54 3.18 2.96 2.69 2.25 2.23 1.96 1.96 1.83 1.79 1.95 1.85 1.59 1.51 1.32 1.25 1.11 1.41 1.72 1.75 1.81 1.67
1.19 1.60 2.13 2.12 2.20 2.32 2.70 3.90 4.27 4.48 5.23 6.65 7.46 8.17 8.53 7.85 6.69 5.19 5.00 4.80 4.32 3.82 3.42 3.36 3.26 2.84 2.62 2.64 2.50 2.51 2.05 1.77 1.54 1.44 1.41 1.32 1.34 1.37 1.55 1.82 1.73 1.81 1.61
0.64 0.84 1.19 1.52 1.66 1.74 2.13 2.69 2.98 3.48 3.84 4.53 5.00 5.87 6.69 6.92 6.60 5.86 5.31 4.51 4.08 3.67 3.16 2.96 3.34 3.02 3.04 2.94 2.74 2.74 2.06 1.59 1.65 1.69 1.51 1.44 1.41 1.25 1.13 1.41 1.60 1.55 1.47
0.45 0.52 0.62 1.00 1.27 1.70 1.96 2.13 2.47 2.86 3.35 3.38 3.47 3.75 4.12 4.53 5.28 6.13 6.48 6.42 4.97 4.15 3.35 2.54 3.12 2.74 2.71 3.17 2.45 1.93 1.98 1.50 1.28 1.35 1.28 1.17 1.08 1.09 1.30 1.18 1.51 2.25 1.82
0.60 0.65 0.76 0.98 1.09 1.34 1.61 1.70 1.73 1.75 2.05 2.38 2.48 2.66 2.69 2.70 3.18 3.92 4.86 5.85 6.13 5.44 4.59 3.49 2.87 3.44 3.22 3.33 3.39 2.51 1.96 1.84 1.77 1.39 1.10 1.02 0.97 0.93 0.89 0.97 1.25 2.19 2.46
0.68 0.61 0.62 0.56 0.57 0.63 0.80 0.93 1.10 1.18 1.15 1.40 1.57 1.65 1.85 1.83 2.32 2.87 3.28 3.84 4.65 4.81 4.64 3.81 3.22 3.54 2.86 2.96 3.33 3.26 2.46 1.98 1.67 1.44 1.21 0.93 0.80 0.80 0.88 1.00 1.09 1.24 1.40
0.16 0.14 0.16 0.11 0.10 0.12 0.23 0.42 0.59 0.85 1.02 1.04 1.04 1.07 1.19 1.29 1.48 1.99 2.48 3.15 3.57 3.58 4.09 4.30 3.94 3.29 2.91 2.84 3.07 3.29 3.40 3.11 2.75 2.34 1.87 1.44 1.13 1.13 1.12 1.06 1.11 1.10 1.15
0.02 0.02 0.01 0.01 0.03 0.03 0.08 0.20 0.33 0.51 0.69 0.85 0.90 0.90 0.89 0.80 0.92 1.17 1.56 2.00 2.24 2.46 2.80 2.93 2.80 3.01 3.16 3.10 3.23 3.06 3.32 3.54 3.67 2.98 2.45 2.03 1.89 1.71 1.48 1.48 1.64 1.53 1.82
0.09 0.13 0.17 0.15 0.13 0.07 0.06 0.12 0.23 0.41 0.61 0.69 0.74 0.76 0.86 0.85 0.98 1.22 1.35 1.44 1.72 2.10 2.11 1.84 1.84 1.88 2.41 2.88 2.81 2.74 2.89 3.22 3.33 2.85 2.65 2.45 2.36 2.40 2.21 2.09 2.19 2.24 2.07
0.03 0.02 0.07 0.12 0.23 0.33 0.36 0.41 0.50 0.55 0.63 0.69 0.80 0.75 0.63 0.85 0.97 1.00 1.04 1.34 1.54 1.70 1.74 1.60 1.71 1.79 1.94 2.18 2.34 2.53 2.66 3.09 2.87 2.81 2.59 2.59 2.65 2.54 2.56 2.58 2.61 2.47 2.06
0.13 0.09 0.05 0.06 0.03 0.03 0.06 0.11 0.17 0.27 0.35 0.45 0.64 0.82 0.84 0.83 0.78 0.91 1.15 1.28 1.39 1.39 1.35 1.27 1.42 1.65 1.85 2.07 2.25 2.28 2.26 2.23 2.46 2.72 2.74 2.69 2.79 2.95 3.55 2.85 2.64 2.43 2.20
0.27 0.28 0.17 0.11 0.07 0.07 0.07 0.06 0.06 0.05 0.03 0.07 0.18 0.30 0.46 0.57 0.63 0.65 0.86 0.94 0.92 1.06 1.14 1.23 1.21 1.37 1.53 1.70 1.88 2.10 2.12 2.08 2.21 2.34 2.47 2.48 2.60 2.92 3.05 2.98 2.82 2.61 2.34
0.41 0.38 0.35 0.28 0.20 0.17 0.12 0.10 0.11 0.10 0.07 0.04 0.04 0.11 0.23 0.35 0.46 0.57 0.60 0.59 0.64 0.89 1.01 1.16 1.22 1.19 1.34 1.46 1.52 1.57 1.74 2.12 2.41 2.43 2.40 2.45 2.50 2.96 2.89 2.55 2.47 2.86 2.81
0.45 0.54 0.49 0.43 0.38 0.31 0.25 0.21 0.21 0.24 0.25 0.21 0.17 0.15 0.20 0.28 0.29 0.25 0.39 0.46 0.60 0.77 0.85 0.97 1.08 1.19 1.27 1.43 1.52 1.63 1.67 1.86 1.94 1.91 1.96 2.15 2.41 2.69 2.69 2.36 2.14 2.15 2.02
0.42 0.44 0.50 0.46 0.44 0.42 0.41 0.39 0.33 0.32 0.36 0.37 0.33 0.41 0.55 0.47 0.29 0.31 0.31 0.39 0.53 0.63 0.73 0.84 0.91 1.07 1.17 1.29 1.48 1.65 1.88 1.84 1.89 2.19 2.22 2.18 2.24 2.20 1.70 1.82 1.88 1.93 1.98
0.37 0.42 0.40 0.40 0.45 0.53 0.53 0.52 0.54 0.51 0.47 0.46 0.40 0.44 0.52 0.44 0.36 0.38 0.45 0.48 0.48 0.54 0.59 0.70 0.80 0.85 1.16 1.55 1.79 1.91 1.94 1.98 1.95 2.20 2.24 2.13 2.12 1.97 1.84 1.78 1.63 1.68 1.81
0.23 0.26 0.29 0.32 0.35 0.44 0.52 0.49 0.49 0.52 0.46 0.40 0.39 0.41 0.43 0.43 0.41 0.41 0.39 0.42 0.53 0.59 0.56 0.59 0.66 0.73 0.73 1.08 1.59 2.22 2.37 2.02 2.05 2.22 2.32 2.13 2.03 2.03 2.17 2.24 1.99 1.93 1.78
0.14 0.17 0.19 0.20 0.24 0.27 0.30 0.34 0.37 0.43 0.45 0.41 0.36 0.36 0.40 0.39 0.36 0.37 0.37 0.39 0.42 0.47 0.51 0.56 0.63 0.68 0.78 0.95 1.26 1.59 2.03 2.16 2.28 2.40 2.62 2.71 2.11 1.91 1.87 1.89 1.75 1.79 1.85
0.15 0.13 0.15 0.17 0.20 0.23 0.26 0.28 0.31 0.32 0.35 0.38 0.40 0.41 0.40 0.43 0.43 0.41 0.42 0.43 0.47 0.46 0.44 0.52 0.66 0.77 0.84 1.05 1.24 1.36 1.80 1.83 1.90 1.97 1.94 1.96 1.85 1.58 1.65 1.78 1.55 1.64 1.68
0.18 0.18 0.19 0.19 0.21 0.22 0.26 0.27 0.28 0.31 0.35 0.37 0.41 0.45 0.46 0.49 0.46 0.43 0.47 0.53 0.52 0.47 0.46 0.47 0.58 0.76 0.90 1.07 1.21 1.45 1.53 1.51 1.38 1.24 1.48 1.86 1.58 1.39 1.43 1.61 1.50 1.64 1.59